Date String (YYYY-MM-DD hh:mm:ss) UTC,Instrument flags,Ambient pressure (hPa),Sample flow (lpm),Bypass flow (lpm),Sample temperature (°C),Ambient temperature (°C),ASC tube jacket temperature (°C),LED temperature (°C),Box temperature (°C),Sample RH (%),Span deviation,Mass concentration (μg/m³),Mass concentration (μg/m³),Mass concentration (μg/m³)
DateTimeUTC,F1_M11,P_M11,Q1_M11,Q2_M11,T1_M11,T2_M11,T3_M11,T4_M11,T5_M11,U1_M11,ZSPAN_M11,X2_M11,X0_M11,X1_M11
2022-03-23 10:00:00,,0826.8,4.99,0.00,21.5,22.4,00.0,30.3,23.3,07.7,0000.0,0000.70,0002.51,0000.49
2022-03-23 10:01:00,,0827.0,5.00,0.00,21.4,22.0,00.0,30.3,23.2,07.8,0000.0,0000.71,0002.75,0000.49
2022-03-23 10:02:00,,0826.8,5.01,0.00,21.4,21.6,00.0,30.3,23.1,07.8,0000.0,0000.68,0002.74,0000.48
2022-03-23 10:03:00,,0826.8,4.99,0.00,21.3,21.3,00.0,30.3,23.0,07.7,0000.0,0000.67,0002.70,0000.48
2022-03-23 10:04:00,,0826.8,5.01,0.00,21.3,21.1,00.0,30.3,22.9,07.7,0000.0,0000.69,0002.70,0000.48
2022-03-23 10:05:00,,0826.8,5.00,0.00,21.3,20.9,00.0,30.3,22.8,07.7,0000.0,0000.69,0002.70,0000.48
2022-03-23 10:06:00,,0826.8,4.98,0.00,21.2,20.7,00.0,30.3,22.8,07.7,0000.0,0000.71,0002.73,0000.48
2022-03-23 10:07:00,,0826.7,5.00,0.00,21.2,20.6,00.0,30.3,22.7,07.7,0000.0,0000.70,0002.71,0000.48
2022-03-23 10:08:00,,0826.7,5.01,0.00,21.2,20.5,00.0,30.3,22.7,07.8,0000.0,0000.68,0002.63,0000.48
2022-03-23 10:09:00,,0826.7,5.00,0.00,21.2,20.5,00.0,30.3,22.8,07.8,0000.0,0000.70,0003.00,0000.49
2022-03-23 10:10:00,,0826.7,4.98,0.00,21.2,20.5,00.0,30.3,22.7,07.7,0000.0,0000.73,0002.01,0000.49
2022-03-23 10:11:00,,0826.7,5.00,0.00,21.1,20.4,00.0,30.3,22.7,07.7,0000.0,0000.78,0002.08,0000.50
2022-03-23 10:12:00,,0826.7,5.00,0.00,21.1,20.4,00.0,30.2,22.7,07.7,0000.0,0000.77,0001.85,0000.50
2022-03-23 10:13:00,,0826.7,4.99,0.00,21.2,21.1,00.0,30.3,22.9,07.6,0000.0,0000.77,0001.83,0000.50
2022-03-23 10:14:00,,0826.7,5.01,0.00,21.4,22.2,00.0,30.3,23.2,07.5,0000.0,0000.81,0001.96,0000.50
2022-03-23 10:15:00,,0826.7,5.00,0.00,21.5,22.9,00.0,30.4,23.5,07.5,0000.0,0000.78,0001.93,0000.49
2022-03-23 10:16:00,,0826.7,5.01,0.00,21.6,22.7,00.0,30.4,23.6,07.4,0000.0,0000.78,0001.93,0000.50
2022-03-23 10:17:00,,0826.7,4.99,0.00,21.6,22.3,00.0,30.4,23.4,07.4,0000.0,0000.79,0001.96,0000.50
2022-03-23 10:18:00,,0826.7,5.00,0.00,21.6,21.9,00.0,30.4,23.3,07.5,0000.0,0000.83,0002.14,0000.50
2022-03-23 10:19:00,,0826.7,5.02,0.00,21.6,21.6,00.0,30.4,23.2,07.4,0000.0,0000.83,0002.17,0000.50
2022-03-23 10:20:00,,0826.7,4.99,0.00,21.5,21.4,00.0,30.4,23.2,07.4,0000.0,0000.87,0001.88,0000.50
2022-03-23 10:21:00,,0826.7,5.01,0.00,21.5,21.2,00.0,30.4,23.1,07.4,0000.0,0000.85,0001.68,0000.51
2022-03-23 10:22:00,,0826.7,5.00,0.00,21.4,21.0,00.0,30.4,23.0,07.5,0000.0,0000.83,0001.67,0000.51
2022-03-23 10:23:00,,0826.7,5.00,0.00,21.4,20.8,00.0,30.4,22.9,07.5,0000.0,0000.83,0001.66,0000.51
2022-03-23 10:24:00,,0826.7,4.99,0.00,21.3,20.7,00.0,30.4,22.9,07.5,0000.0,0000.85,0001.71,0000.52
2022-03-23 10:25:00,,0826.7,5.00,0.00,21.3,20.6,00.0,30.4,22.8,07.5,0000.0,0000.84,0001.67,0000.53
2022-03-23 10:26:00,,0826.6,5.01,0.00,21.3,20.5,00.0,30.4,22.8,07.5,0000.0,0000.87,0001.71,0000.53
2022-03-23 10:27:00,,0826.6,4.98,0.00,21.2,20.4,00.0,30.4,22.8,07.5,0000.0,0000.92,0001.77,0000.53
2022-03-23 10:28:00,,0826.6,5.00,0.00,21.2,20.4,00.0,30.3,22.7,07.5,0000.0,0000.91,0001.81,0000.53
2022-03-23 10:29:00,,0826.6,5.01,0.00,21.2,20.5,00.0,30.3,22.8,07.5,0000.0,0000.91,0001.73,0000.54
2022-03-23 10:30:00,,0826.6,5.00,0.00,21.3,21.5,00.0,30.4,23.1,07.4,0000.0,0000.93,0001.79,0000.55
2022-03-23 10:31:00,,0826.6,5.01,0.00,21.5,22.6,00.0,30.4,23.4,07.4,0000.0,0000.94,0001.75,0000.56
2022-03-23 10:32:00,,0826.6,4.99,0.00,21.6,22.8,00.0,30.4,23.5,07.3,0000.0,0000.97,0001.81,0000.58
2022-03-23 10:33:00,,0826.6,5.01,0.00,21.6,22.4,00.0,30.5,23.4,07.3,0000.0,0000.99,0001.84,0000.59
2022-03-23 10:34:00,,0826.5,5.00,0.00,21.6,21.9,00.0,30.5,23.3,07.3,0000.0,0001.03,0002.49,0000.59
2022-03-23 10:35:00,,0826.5,5.01,0.00,21.5,21.6,00.0,30.5,23.2,07.4,0000.0,0001.08,0002.91,0000.60
2022-03-23 10:36:00,,0826.5,4.99,0.00,21.5,21.4,00.0,30.5,23.1,07.4,0000.0,0001.10,0002.91,0000.61
2022-03-23 10:37:00,,0826.5,5.00,0.00,21.5,21.2,00.0,30.5,23.1,07.4,0000.0,0001.09,0002.90,0000.62
2022-03-23 10:38:00,,0826.5,5.00,0.00,21.5,21.1,00.0,30.5,23.0,07.4,0000.0,0001.04,0002.86,0000.62
2022-03-23 10:39:00,,0826.5,4.99,0.00,21.4,20.9,00.0,30.5,23.0,07.4,0000.0,0001.02,0002.76,0000.62
2022-03-23 10:40:00,,0826.5,5.00,0.00,21.4,20.7,00.0,30.4,22.9,07.4,0000.0,0000.99,0002.67,0000.63
2022-03-23 10:41:00,,0826.5,5.00,0.00,21.3,20.7,00.0,30.4,22.9,07.4,0000.0,0000.99,0002.75,0000.63
2022-03-23 10:42:00,,0826.5,4.99,0.00,21.3,20.6,00.0,30.4,22.8,07.4,0000.0,0000.95,0002.72,0000.61
2022-03-23 10:43:00,,0826.6,5.01,0.00,21.2,20.5,00.0,30.4,22.8,07.4,0000.0,0000.90,0002.73,0000.60
2022-03-23 10:44:00,,0826.6,5.00,0.00,21.2,20.3,00.0,30.4,22.7,07.5,0000.0,0000.91,0002.72,0000.60
2022-03-23 10:45:00,,0826.6,4.99,0.00,21.1,20.4,00.0,30.4,22.7,07.5,0000.0,0000.89,0002.13,0000.61
2022-03-23 10:46:00,,0826.5,4.99,0.00,21.3,21.4,00.0,30.4,23.0,07.5,0000.0,0000.85,0001.77,0000.60
2022-03-23 10:47:00,,0826.5,5.01,0.00,21.4,22.4,00.0,30.4,23.3,07.4,0000.0,0000.85,0001.79,0000.59
2022-03-23 10:48:00,,0826.5,5.01,0.00,21.6,22.6,00.0,30.4,23.5,07.4,0000.0,0000.85,0001.75,0000.59
2022-03-23 10:49:00,,0826.5,4.98,0.00,21.6,22.2,00.0,30.5,23.4,07.3,0000.0,0000.90,0001.84,0000.59
2022-03-23 10:50:00,,0826.5,5.00,0.00,21.5,21.8,00.0,30.5,23.2,07.3,0000.0,0000.95,0002.06,0000.58
2022-03-23 10:51:00,,0826.5,5.00,0.00,21.5,21.5,00.0,30.5,23.1,07.3,0000.0,0001.02,0002.24,0000.58
2022-03-23 10:52:00,,0826.5,5.00,0.00,21.4,21.2,00.0,30.5,23.0,07.3,0000.0,0001.02,0002.26,0000.58
2022-03-23 10:53:00,,0826.5,5.01,0.00,21.4,20.9,00.0,30.4,22.9,07.3,0000.0,0001.03,0002.21,0000.58
2022-03-23 10:54:00,,0826.5,5.00,0.00,21.3,20.7,00.0,30.4,22.8,07.4,0000.0,0001.03,0002.13,0000.57
2022-03-23 10:55:00,,0826.5,5.00,0.00,21.3,20.6,00.0,30.4,22.8,07.4,0000.0,0001.03,0002.20,0000.55
2022-03-23 10:56:00,,0826.5,5.00,0.00,21.2,20.4,00.0,30.4,22.7,07.4,0000.0,0001.01,0002.07,0000.54
2022-03-23 10:57:00,,0826.5,5.00,0.00,21.1,20.3,00.0,30.4,22.6,07.4,0000.0,0000.98,0002.01,0000.54
2022-03-23 10:58:00,,0826.5,5.00,0.00,21.1,20.6,00.0,30.3,22.7,07.4,0000.0,0000.99,0002.05,0000.53
2022-03-23 10:59:00,,0826.5,5.00,0.00,21.3,21.5,00.0,30.4,23.0,07.4,0000.0,0000.98,0002.03,0000.53
